Weather History for Beaver Island, MI

Change the Weather History Date:

Tuesday, February 4, 2014

  Actual Average Record
Temperature  
Mean Temperature 10 °F -  
Max Temperature 20 °F 23 °F 44 °F (2005)
Min Temperature 0 °F 10 °F -10 °F (1981)
Degree Days  
Heating Degree Days 55    
Moisture  
Dew Point 8 °F    
Average Humidity 77    
Maximum Humidity 90    
Minimum Humidity 63    
Precipitation  
Precipitation 0.00 in - - ()
Sea Level Pressure  
Sea Level Pressure 30.34 in    
Wind  
Wind Speed 3 mph (NNW)    
Max Wind Speed 9 mph    
Max Gust Speed -    
Visibility 10 miles    
Events Snow    
Averages and records for this station are not official NWS values.
T = Trace of Precipitation, MM = Missing Value Source: NWS Daily Summary

Daily Weather History Graph

Daily Weather History Graph

Search for Another Location

Airport:

Trip Planner

Search our weather history database for the weather conditions in past years. The results will help you decide how hot, cold, wet, or windy it might be!

Date:

Astronomy

Feb. 04, 2014 Rise Set
Actual Time 8:00 AM EST 5:52 PM EST
Civil Twilight 7:28 AM EST 6:24 PM EST
Nautical Twilight 6:53 AM EST 6:59 PM EST
Astronomical Twilight 6:18 AM EST 7:34 PM EST
Moon 10:18 AM EST (2/4) No Moon Set
Length of Visible Light 10h 55m
Length of Day
9h 52m
Waxing Crescent, 29% of the Moon is Illuminated
Feb 4
Waxing Crescent
Feb 6
First Quarter
Feb 14
Full
Feb 22
Last Quarter
Mar 1
New

Hourly Weather History & Observations

Time (EST) Temp. Windchill Dew Point Humidity Pressure Visibility Wind Dir Wind Speed Gust Speed Precip Events Conditions
12:15 AM 18.9 °F 8.0 °F 13.1 °F 78% 30.25 in 10.0 mi WSW 9.2 mph - N/A   Scattered Clouds
12:35 AM 19.4 °F 8.6 °F 14.2 °F 80% 30.26 in 10.0 mi West 9.2 mph - N/A   Mostly Cloudy
12:56 AM 20.3 °F 11.5 °F 14.2 °F 77% 30.26 in 10.0 mi West 6.9 mph - N/A   Overcast
1:15 AM 19.4 °F 9.5 °F 13.1 °F 76% 30.26 in 10.0 mi West 8.1 mph - N/A   Mostly Cloudy
1:35 AM 18.3 °F 9.1 °F 11.5 °F 75% 30.27 in 10.0 mi WNW 6.9 mph - N/A   Scattered Clouds
1:56 AM 16.2 °F - 10.0 °F 77% 30.28 in 10.0 mi Calm Calm - N/A   Clear
2:15 AM 14.7 °F - 8.8 °F 77% 30.28 in 10.0 mi Calm Calm - N/A   Clear
2:35 AM 13.5 °F - 8.4 °F 80% 30.29 in 10.0 mi Calm Calm - N/A   Mostly Cloudy
2:55 AM 14.4 °F 6.9 °F 8.4 °F 77% 30.29 in 10.0 mi WNW 4.6 mph - N/A   Overcast
3:15 AM 11.5 °F - 6.1 °F 79% 30.30 in 10.0 mi Calm Calm - N/A Snow Light Snow
3:35 AM 10.2 °F - 6.8 °F 86% 30.30 in 7.0 mi Calm Calm - N/A Snow Light Snow
3:55 AM 6.8 °F - 3.9 °F 88% 30.30 in 5.0 mi Calm Calm - N/A Snow Light Snow
4:15 AM 4.1 °F - 1.4 °F 89% 30.31 in 7.0 mi Calm Calm - N/A   Clear
4:36 AM 4.1 °F - 0.9 °F 86% 30.31 in 7.0 mi Calm Calm - N/A   Scattered Clouds
4:55 AM 3.2 °F - -0.2 °F 86% 30.32 in 7.0 mi Calm Calm - N/A   Clear
5:15 AM 5.0 °F - 2.1 °F 88% 30.32 in 7.0 mi Calm Calm - N/A   Clear
5:36 AM 3.0 °F - -0.0 °F 87% 30.33 in 7.0 mi Calm Calm - N/A   Clear
5:55 AM 0.1 °F - -3.8 °F 83% 30.33 in 7.0 mi Calm Calm - N/A   Clear
6:15 AM 1.0 °F -6.7 °F -2.7 °F 84% 30.33 in 7.0 mi WNW 3.5 mph - N/A   Clear
6:36 AM 6.4 °F - 3.0 °F 86% 30.33 in 10.0 mi Calm Calm - N/A   Clear
6:55 AM 5.0 °F - 1.8 °F 86% 30.34 in 10.0 mi Calm Calm - N/A   Clear
7:15 AM 7.0 °F - 3.9 °F 87% 30.35 in 10.0 mi Calm Calm - N/A   Clear
7:35 AM 3.2 °F - -0.6 °F 84% 30.35 in 10.0 mi Calm Calm - N/A   Clear
7:55 AM 1.4 °F - -2.0 °F 86% 30.35 in 10.0 mi Calm Calm - N/A   Clear
8:15 AM -0.4 °F - -4.2 °F 84% 30.36 in 10.0 mi Calm Calm - N/A   Clear
8:35 AM - - - N/A% - - North - - N/A   Unknown
8:55 AM - - - N/A% 30.38 in 10.0 mi Calm Calm - N/A   Clear
9:16 AM - - - N/A% 30.38 in 10.0 mi NW 4.6 mph - N/A   Clear
9:35 AM - - - N/A% 30.38 in 10.0 mi NW 3.5 mph - N/A   Clear
9:55 AM - - - N/A% 30.38 in 10.0 mi NW 5.8 mph - N/A   Clear
10:16 AM 13.6 °F 6.0 °F 11.3 °F 90% 30.38 in 10.0 mi NNW 4.6 mph - N/A   Clear
10:35 AM 14.4 °F 8.6 °F 12.0 °F 90% 30.39 in 10.0 mi NW 3.5 mph - N/A   Clear
10:55 AM 15.4 °F 9.8 °F 12.7 °F 89% 30.40 in 10.0 mi NW 3.5 mph - N/A   Clear
11:16 AM 16.2 °F 10.6 °F 11.3 °F 81% 30.40 in 10.0 mi NW 3.5 mph - N/A   Clear
11:35 AM 17.6 °F 12.3 °F 10.9 °F 75% 30.40 in 10.0 mi NW 3.5 mph - N/A   Clear
11:55 AM 18.3 °F - 10.9 °F 73% 30.40 in 10.0 mi Calm Calm - N/A   Clear
12:15 PM 19.4 °F 12.8 °F 10.9 °F 70% 30.40 in 10.0 mi NW 4.6 mph - N/A   Clear
12:35 PM 19.8 °F 10.8 °F 11.3 °F 70% 30.38 in 10.0 mi NW 6.9 mph - N/A   Clear
12:55 PM 19.6 °F 13.0 °F 11.7 °F 71% 30.37 in 10.0 mi WNW 4.6 mph - N/A   Scattered Clouds
1:15 PM 19.2 °F 14.1 °F 11.3 °F 71% 30.36 in 10.0 mi NW 3.5 mph - N/A   Scattered Clouds
1:35 PM 18.9 °F - 11.1 °F 72% 30.37 in 10.0 mi Calm Calm - N/A   Mostly Cloudy
1:56 PM 20.8 °F 16.0 °F 12.0 °F 69% 30.36 in 10.0 mi North 3.5 mph - N/A   Overcast
2:15 PM 19.9 °F 14.9 °F 12.0 °F 71% 30.36 in 10.0 mi NE 3.5 mph - N/A   Overcast
2:35 PM 20.1 °F 15.2 °F 11.8 °F 70% 30.36 in 10.0 mi NNE 3.5 mph - N/A   Overcast
2:55 PM 19.8 °F 14.7 °F 11.1 °F 69% 30.35 in 10.0 mi NNE 3.5 mph - N/A   Overcast
3:15 PM 19.6 °F - 10.4 °F 68% 30.35 in 10.0 mi Calm Calm - N/A   Mostly Cloudy
3:35 PM 19.2 °F 14.1 °F 9.9 °F 67% 30.36 in 10.0 mi NE 3.5 mph - N/A   Mostly Cloudy
3:55 PM 19.4 °F - 9.3 °F 65% 30.36 in 10.0 mi Calm Calm - N/A   Clear
4:15 PM 19.4 °F 14.3 °F 9.0 °F 64% 30.35 in 10.0 mi NNE 3.5 mph - N/A   Clear
4:36 PM 19.2 °F - 9.0 °F 64% 30.35 in 10.0 mi Calm Calm - N/A   Clear
4:55 PM 19.4 °F - 8.6 °F 63% 30.36 in 10.0 mi Calm Calm - N/A   Clear
5:15 PM 18.9 °F - 8.6 °F 64% 30.36 in 10.0 mi Calm Calm - N/A   Clear
5:36 PM 18.5 °F - 9.3 °F 67% 30.35 in 10.0 mi Calm Calm - N/A   Clear
5:55 PM 17.1 °F - 9.5 °F 72% 30.36 in 10.0 mi Calm Calm - N/A   Clear
6:15 PM 14.5 °F - 7.9 °F 75% 30.35 in 10.0 mi Calm Calm - N/A   Clear
6:35 PM 13.8 °F - 8.1 °F 78% 30.36 in 10.0 mi Calm Calm - N/A   Scattered Clouds
6:55 PM 12.9 °F - 8.1 °F 81% 30.36 in 10.0 mi Calm Calm - N/A   Mostly Cloudy
7:15 PM 12.0 °F - 7.5 °F 82% 30.38 in 10.0 mi Calm Calm - N/A   Mostly Cloudy
7:35 PM 11.7 °F - 8.1 °F 85% 30.37 in 10.0 mi Calm Calm - N/A   Scattered Clouds
7:56 PM 12.7 °F - 8.6 °F 84% 30.36 in 10.0 mi Calm Calm - N/A   Clear
8:15 PM 13.8 °F - 8.6 °F 80% 30.36 in 10.0 mi Calm Calm - N/A   Clear
8:35 PM 12.2 °F - 7.3 °F 81% 30.36 in 10.0 mi Calm Calm - N/A   Mostly Cloudy
8:55 PM 14.0 °F - 9.1 °F 81% 30.35 in 10.0 mi Calm Calm - N/A   Mostly Cloudy
9:15 PM 14.4 °F 8.6 °F 8.8 °F 79% 30.34 in 10.0 mi NNE 3.5 mph - N/A   Mostly Cloudy
9:35 PM 14.7 °F - 9.1 °F 79% 30.34 in 10.0 mi Calm Calm - N/A   Overcast
9:55 PM 14.7 °F 7.3 °F 9.1 °F 79% 30.33 in 10.0 mi NNE 4.6 mph - N/A   Overcast
10:15 PM 15.4 °F 6.8 °F 9.3 °F 77% 30.32 in 10.0 mi NE 5.8 mph - N/A   Scattered Clouds
10:35 PM 15.3 °F 7.9 °F 8.4 °F 74% 30.33 in 10.0 mi NE 4.6 mph - N/A   Clear
10:55 PM 14.7 °F 9.0 °F 7.7 °F 74% 30.33 in 10.0 mi NE 3.5 mph - N/A   Clear
11:15 PM 14.4 °F 4.3 °F 6.4 °F 71% 30.33 in 10.0 mi NNE 6.9 mph - N/A   Clear
11:35 PM 14.0 °F 3.9 °F 5.7 °F 70% 30.32 in 10.0 mi NE 6.9 mph - N/A   Scattered Clouds
11:55 PM 13.8 °F 8.0 °F 4.6 °F 67% 30.31 in 10.0 mi NE 3.5 mph - N/A   Mostly Cloudy